Wetbulb
37.18 36.76 35.91 36.29 36.12 35.81 35.05 34.71 34.46 34.63 34.54 34.06 34.05 33.83 33.75 33.36 33.21 32.28 31.65 30.82 29.18 30.22 32.96 32.64 31.00 29.96 29.08 29.51 30.89 30.66 29.72 29.10 25.31 26.49 27.96 29.16 29.68 30.36 31.92 33.38 34.23 35.94 38.07
37.18 36.49 36.16 36.06 35.98 35.09 34.49 34.28 34.45 33.85 34.02 33.84 33.92 33.66 33.46 33.04 32.14 30.86 29.20 28.72 28.74 31.56 32.60 29.12 27.56 29.48 29.19 30.17 30.00 30.09 28.01 29.08 27.56 24.07 25.55 27.22 28.26 30.43 31.67 31.76 33.89 37.52 37.80
36.02 35.77 35.43 35.57 35.24 34.44 33.99 34.01 33.98 33.54 33.24 33.35 33.57 32.94 32.39 31.37 30.00 29.21 28.68 28.77 31.71 32.57 29.07 27.02 27.77 29.40 28.68 29.43 29.86 27.92 27.12 28.14 26.61 26.16 25.61 27.98 29.94 32.66 31.89 32.81 34.12 34.84 37.52
35.70 35.50 35.22 34.92 35.05 34.24 33.94 33.50 33.34 33.06 32.50 32.53 32.60 32.23 31.16 29.38 28.96 28.83 29.00 30.33 32.25 29.73 28.02 27.14 27.94 28.75 28.32 28.43 30.55 29.44 28.64 27.82 26.59 25.17 27.01 28.83 30.33 31.82 31.91 30.79 31.31 32.58 32.20
35.45 35.03 35.08 35.01 34.38 33.69 33.08 32.77 32.57 32.20 32.20 32.07 31.45 30.55 28.75 28.36 28.83 27.69 28.59 32.21 29.38 27.78 26.51 25.92 27.21 28.50 29.15 31.76 32.13 30.35 29.52 28.58 27.52 26.91 27.28 28.46 28.35 29.68 30.08 32.09 31.73 31.81 31.59
35.08 35.02 34.63 33.99 33.66 33.14 32.51 31.98 31.39 31.17 31.13 30.90 30.09 28.50 27.36 28.53 30.73 32.31 33.14 31.35 27.54 25.94 22.87 23.34 24.74 26.34 28.84 32.73 33.61 33.86 32.28 30.45 29.12 28.39 28.92 28.77 29.75 31.05 32.13 31.74 31.43 30.35 28.85
33.91 33.68 33.44 33.62 32.81 32.13 31.79 31.05 30.84 30.52 30.41 29.35 24.64 21.86 19.19 21.03 30.06 32.68 33.52 30.93 21.77 19.13 18.44 20.42 21.87 25.58 26.39 30.64 33.11 34.43 31.96 32.78 35.13 32.05 29.82 30.27 30.87 32.45 32.30 30.91 28.93 27.34 26.89
32.51 32.58 32.67 32.58 32.07 31.06 30.61 30.47 28.80 27.71 27.16 22.99 19.30 17.35 14.03 17.64 30.32 32.56 33.24 27.22 14.54 14.14 13.74 16.31 18.57 20.22 24.20 30.13 31.67 31.98 31.30 31.92 31.86 31.68 30.82 30.71 32.28 31.91 31.46 30.41 28.47 27.95 26.65
31.88 31.88 31.93 32.36 31.29 30.68 30.10 29.02 24.78 26.12 29.28 25.68 18.62 15.66 14.67 16.36 29.32 32.17 29.14 18.33 15.45 14.62 14.48 16.02 17.81 24.57 28.65 31.46 30.36 30.28 31.10 29.20 30.27 31.40 30.54 31.30 31.76 32.63 32.25 30.31 27.08 25.19 21.32
32.13 31.92 31.88 31.98 31.51 30.47 30.45 28.34 25.10 22.71 28.37 25.87 20.32 17.93 18.25 18.57 28.16 31.74 28.43 16.35 12.72 11.00 12.14 14.91 23.37 26.80 28.62 31.25 29.31 29.02 27.84 25.50 26.16 20.95 20.95 23.27 24.55 25.59 28.08 25.77 26.86 23.37 22.20
31.13 30.57 30.51 30.91 31.08 31.02 28.68 25.23 28.16 27.64 29.21 27.44 24.69 15.71 17.17 17.97 19.89 31.50 31.95 15.03 14.68 11.05 10.66 14.01 17.31 27.64 27.96 29.97 29.68 28.02 27.00 24.85 22.96 20.27 15.87 18.11 19.94 21.08 21.95 23.65 23.64 23.75 21.26
28.31 29.17 29.61 29.80 30.55 29.15 28.27 27.27 27.99 28.88 28.33 27.39 22.43 17.52 18.00 15.39 21.83 29.52 30.74 30.14 24.63 14.93 13.20 15.74 18.33 27.11 26.58 27.52 25.72 28.00 26.87 23.82 21.38 18.94 14.12 17.58 18.19 18.55 19.44 19.50 19.39 20.11 22.19
25.56 26.06 26.95 27.59 29.30 29.20 28.31 27.73 28.25 29.01 28.32 27.02 22.10 20.31 18.74 18.90 15.18 30.29 29.52 29.93 29.02 15.42 11.77 18.95 25.08 24.67 23.82 19.58 25.42 25.29 21.94 17.90 15.82 14.57 9.28 14.34 17.61 19.05 18.60 19.65 20.07 18.88 17.68
25.30 23.90 24.81 27.78 27.72 27.79 28.92 29.01 28.66 28.79 28.18 27.68 23.49 23.16 21.57 19.37 19.71 19.72 21.48 19.73 24.76 22.05 21.54 13.56 19.54 20.56 22.07 18.64 14.06 16.31 15.08 11.97 10.05 10.89 10.66 13.92 13.42 15.03 15.89 17.33 16.75 16.87 14.38
24.00 24.39 26.32 28.10 27.91 27.87 28.85 29.08 29.51 29.82 29.71 28.11 26.26 26.91 23.17 21.82 23.60 25.88 24.51 19.95 16.88 20.92 10.38 8.69 10.70 12.46 10.67 11.02 10.47 11.00 12.18 14.05 12.52 11.67 13.42 12.94 14.83 13.62 15.62 16.96 15.76 15.48 13.26
24.36 23.58 26.38 27.73 27.65 28.38 28.39 28.27 32.39 31.98 32.22 32.61 32.01 28.79 25.73 28.07 30.12 31.19 30.32 29.81 29.56 26.51 7.50 4.91 8.67 10.78 10.33 10.49 9.09 8.71 9.95 10.95 12.86 11.28 12.85 13.76 13.99 15.09 15.30 16.57 16.82 15.53 13.65
25.83 26.21 25.93 27.42 27.94 28.04 27.95 28.29 27.91 30.13 33.05 32.84 33.04 33.64 31.96 29.86 31.46 31.36 30.35 29.69 29.84 24.59 4.87 4.89 7.46 10.90 10.68 9.90 9.80 9.07 8.83 10.16 10.79 10.80 10.67 12.88 15.24 15.52 14.77 14.92 15.58 15.46 14.53
26.89 26.55 27.24 27.38 28.21 28.30 28.46 28.46 28.88 27.89 27.38 28.87 32.51 32.49 33.79 31.93 31.99 31.62 30.78 27.39 16.61 17.02 4.20 4.98 6.17 7.62 8.36 7.62 6.90 7.46 7.72 7.67 8.31 9.39 9.92 9.04 11.95 13.10 14.34 14.62 14.90 14.01 13.68
25.40 27.71 29.00 28.83 28.62 28.52 28.44 27.83 28.50 27.92 27.45 22.51 24.97 31.45 31.98 33.00 32.35 31.47 30.88 20.25 17.95 14.05 11.45 6.08 5.07 6.97 6.42 6.40 3.89 2.98 6.10 6.49 5.24 5.00 7.35 8.99 10.69 13.39 12.56 12.82 13.08 13.87 13.75
23.17 26.21 26.98 28.21 28.27 27.82 27.83 26.95 27.34 27.42 26.30 25.99 24.21 26.83 29.63 29.44 29.02 27.61 25.69 25.24 18.37 17.93 13.95 13.67 8.47 6.98 6.19 5.49 3.68 0.39 1.73 2.47 4.58 2.83 2.80 5.31 6.61 9.36 10.20 9.90 10.68 11.54 11.48
19.11 22.78 24.96 26.13 27.00 27.69 27.41 26.29 26.89 26.69 26.58 25.74 24.91 25.15 28.90 28.11 28.18 26.55 22.92 22.07 23.93 22.58 17.18 14.38 12.27 8.28 6.01 4.44 3.99 2.45 2.48 3.17 1.72 3.16 2.20 2.98 6.08 6.26 6.70 6.61 5.80 4.73 5.54
15.83 20.52 24.42 24.18 24.62 25.77 25.24 27.04 26.73 25.88 26.29 27.28 27.75 23.89 30.44 27.38 26.90 25.67 22.59 22.04 24.17 23.84 20.32 17.80 13.92 11.97 9.33 8.11 7.60 5.82 3.81 3.15 1.63 3.60 2.48 2.42 3.97 3.06 2.61 3.01 3.15 1.61 2.45
14.13 18.63 19.81 24.24 25.20 26.18 25.59 26.38 25.48 25.92 26.63 27.88 28.40 25.53 25.06 28.92 26.18 24.14 23.37 23.34 24.32 21.70 19.74 17.51 15.48 11.07 9.76 8.40 7.86 8.98 7.00 5.88 6.59 6.73 4.98 3.62 3.26 2.69 2.75 1.88 0.63 -0.77 -2.10
12.87 14.12 16.81 20.75 24.81 25.91 25.55 26.19 26.61 26.97 27.31 27.84 28.22 28.32 27.26 28.18 29.36 25.59 24.09 23.57 23.56 22.39 19.93 18.27 16.75 13.77 10.61 9.23 6.01 5.56 2.08 2.39 5.24 6.01 5.83 4.80 2.58 2.01 1.77 0.79 -0.45 -1.15 0.21
12.63 14.40 18.47 20.96 24.01 25.69 27.28 27.51 27.96 28.73 28.89 29.07 29.44 29.24 28.70 28.92 29.55 29.83 26.75 24.36 22.48 21.29 20.15 18.95 17.23 15.10 11.91 11.06 8.29 4.97 3.89 7.34 3.25 3.77 4.19 3.29 1.52 0.23 1.53 1.03 0.04 -2.41 -5.59
7.97 9.44 11.87 15.00 17.07 19.97 26.37 27.74 28.39 28.93 29.15 29.63 29.84 29.92 29.23 29.22 29.65 30.53 27.07 23.94 22.31 21.26 20.54 18.77 16.92 15.19 13.18 11.29 9.91 8.04 7.43 8.13 4.29 3.54 4.42 3.82 2.20 0.51 1.11 -1.13 -2.11 -1.08 -3.03
MSLP
1007.91 1008.50 1009.28 1010.03 1010.64 1011.25 1011.76 1012.20 1012.74 1013.27 1013.76 1014.14 1014.13 1014.13 1014.18 1014.15 1014.29 1014.54 1014.65 1014.60 1014.54 1014.20 1013.80 1013.35 1012.93 1012.59 1012.04 1011.55 1010.92 1010.34 1009.76 1009.17 1007.72 1005.85 1005.33 1004.50 1003.94 1003.05 1002.31 1001.62 1001.11 1000.46 999.93
1007.21 1007.96 1008.79 1009.57 1010.20 1010.85 1011.39 1011.79 1012.29 1012.80 1013.28 1013.55 1013.68 1013.74 1013.72 1013.69 1013.95 1014.24 1014.40 1014.31 1014.19 1013.63 1013.28 1013.10 1012.58 1012.05 1011.38 1010.84 1010.20 1009.52 1009.21 1008.47 1007.78 1006.37 1005.17 1004.06 1003.26 1002.18 1001.36 1000.81 1000.20 999.56 999.24
1006.89 1007.64 1008.42 1009.02 1009.67 1010.32 1010.83 1011.26 1011.79 1012.33 1012.74 1013.03 1013.15 1013.18 1013.35 1013.39 1013.58 1013.81 1013.91 1013.90 1013.65 1013.48 1013.21 1012.81 1012.15 1011.57 1010.86 1010.12 1009.32 1008.77 1008.47 1007.85 1007.38 1006.55 1004.72 1003.63 1002.42 1001.42 1000.59 1000.00 999.34 998.87 998.41
1006.46 1007.10 1007.70 1008.31 1008.92 1009.61 1010.15 1010.70 1011.27 1011.72 1012.20 1012.56 1012.68 1012.78 1012.93 1012.98 1013.22 1013.30 1013.45 1013.35 1013.07 1013.14 1013.07 1012.55 1011.90 1011.22 1010.37 1009.60 1008.44 1008.06 1007.75 1007.19 1006.70 1005.93 1004.44 1002.90 1001.86 1000.57 1000.04 999.26 998.43 998.09 997.99
1005.80 1006.39 1006.85 1007.53 1008.24 1008.98 1009.64 1010.19 1010.76 1011.36 1011.84 1012.18 1012.39 1012.50 1012.64 1012.72 1012.78 1012.92 1012.80 1012.76 1012.97 1012.85 1012.67 1012.25 1011.55 1010.94 1010.07 1009.09 1007.98 1007.56 1007.27 1006.62 1005.85 1005.04 1003.75 1002.56 1001.44 1000.37 999.82 998.89 998.41 998.15 998.26
1004.85 1005.32 1006.07 1006.93 1007.73 1008.39 1009.09 1009.81 1010.50 1011.02 1011.37 1011.71 1011.92 1012.17 1012.34 1012.32 1012.32 1012.40 1012.18 1012.38 1012.65 1012.71 1012.57 1011.90 1011.20 1010.43 1009.67 1008.54 1007.47 1007.25 1006.94 1006.23 1005.37 1004.55 1003.36 1002.38 1001.35 1000.54 999.70 999.15 998.84 998.68 998.51
1003.99 1004.67 1005.44 1006.26 1007.07 1007.71 1008.44 1009.29 1009.96 1010.47 1010.90 1011.21 1011.63 1011.92 1012.21 1011.90 1011.85 1011.87 1011.83 1011.94 1012.41 1012.42 1012.30 1011.87 1011.06 1010.11 1009.31 1008.27 1007.21 1006.75 1006.32 1005.75 1005.11 1004.47 1003.27 1002.14 1001.05 1000.41 999.94 999.45 999.42 999.38 999.46
1003.31 1003.90 1004.63 1005.45 1006.30 1007.17 1008.01 1008.74 1009.40 1010.03 1010.53 1010.97 1011.58 1011.66 1011.78 1011.42 1011.38 1011.42 1011.45 1011.61 1012.12 1012.05 1011.75 1011.52 1011.10 1010.14 1009.05 1007.72 1007.16 1006.61 1005.98 1005.54 1005.16 1004.60 1003.83 1002.69 1001.41 1000.77 1000.30 1000.12 1000.21 1000.16 1000.24
1002.52 1003.09 1003.83 1004.64 1005.59 1006.47 1007.33 1008.12 1008.90 1009.55 1010.12 1010.43 1010.90 1011.29 1011.49 1011.03 1010.94 1010.95 1011.02 1011.41 1012.10 1011.94 1011.23 1010.93 1010.54 1009.59 1008.68 1007.57 1007.19 1006.66 1006.09 1005.68 1005.43 1004.90 1004.21 1003.41 1002.32 1001.27 1000.84 1000.80 1001.04 1001.12 1001.47
1001.10 1001.79 1002.82 1003.77 1004.66 1005.56 1006.38 1007.33 1008.18 1008.87 1009.39 1009.86 1010.34 1010.44 1010.38 1010.46 1010.26 1010.16 1010.31 1011.03 1011.75 1011.57 1010.99 1010.59 1010.11 1009.30 1008.34 1007.46 1007.13 1006.88 1006.38 1005.97 1005.69 1005.40 1004.91 1004.00 1003.39 1002.55 1001.94 1001.79 1001.89 1002.15 1002.46
1000.43 1001.30 1002.26 1003.12 1003.88 1004.71 1005.78 1006.73 1007.64 1008.37 1008.91 1009.33 1009.75 1010.02 1010.05 1009.81 1009.84 1009.83 1009.76 1010.58 1011.30 1011.10 1010.88 1010.66 1009.76 1009.25 1008.48 1007.51 1007.13 1006.88 1006.54 1006.34 1006.07 1005.96 1005.95 1005.42 1004.49 1003.81 1003.43 1003.05 1002.79 1002.79 1003.23
1000.76 1001.41 1002.10 1002.83 1003.64 1004.48 1005.33 1006.33 1007.19 1007.78 1008.33 1008.83 1009.41 1009.62 1009.46 1009.31 1009.40 1009.35 1009.28 1009.73 1010.39 1010.73 1010.58 1010.45 1009.61 1008.81 1008.69 1007.94 1007.50 1006.83 1006.90 1006.78 1006.58 1006.57 1006.49 1006.35 1005.90 1005.28 1005.05 1004.69 1004.37 1004.23 1004.24
1001.50 1001.97 1002.29 1002.87 1003.51 1004.13 1004.91 1005.73 1006.51 1007.06 1007.54 1008.06 1008.56 1008.95 1008.90 1009.00 1008.95 1008.97 1008.73 1009.25 1009.79 1010.19 1009.85 1010.05 1009.35 1008.92 1009.10 1008.62 1007.97 1007.31 1007.25 1007.31 1007.28 1007.38 1007.67 1007.13 1006.92 1006.42 1006.03 1005.76 1005.56 1005.61 1005.51
1001.58 1002.13 1002.40 1002.85 1003.48 1004.07 1004.59 1005.10 1005.71 1006.20 1006.54 1006.98 1007.43 1007.74 1008.06 1008.43 1008.53 1008.67 1008.45 1008.79 1009.26 1009.32 1009.72 1009.85 1009.49 1009.08 1009.05 1008.87 1008.68 1008.32 1007.89 1008.05 1008.10 1007.87 1008.03 1007.80 1007.49 1007.32 1007.04 1006.85 1006.54 1006.54 1006.71
1001.80 1002.04 1002.30 1002.67 1003.10 1003.55 1003.85 1003.99 1004.33 1004.78 1005.22 1005.64 1005.94 1006.19 1006.91 1007.32 1007.09 1007.35 1007.70 1008.52 1008.95 1009.35 1009.87 1010.14 1010.03 1009.70 1009.52 1009.40 1009.31 1009.23 1008.57 1008.38 1008.65 1008.54 1008.34 1008.45 1008.27 1008.08 1008.03 1007.92 1007.65 1007.58 1007.88
1002.31 1002.39 1002.33 1002.39 1002.74 1003.06 1003.52 1003.88 1003.94 1004.14 1004.44 1004.88 1005.10 1005.36 1005.71 1005.68 1005.70 1006.27 1006.84 1007.48 1007.92 1008.76 1009.88 1010.28 1010.34 1009.78 1010.01 1009.79 1009.65 1009.79 1009.43 1009.09 1009.12 1009.26 1009.02 1008.92 1009.00 1008.78 1008.89 1008.75 1008.58 1008.52 1008.81
1002.26 1002.20 1002.17 1002.12 1002.25 1002.57 1002.89 1003.09 1003.29 1003.46 1003.66 1004.23 1004.57 1004.79 1004.92 1005.15 1005.28 1005.61 1006.32 1006.84 1007.45 1008.35 1009.24 1010.03 1010.35 1009.67 1009.78 1009.90 1009.59 1009.65 1009.93 1009.73 1009.54 1009.66 1009.68 1009.29 1009.36 1009.39 1009.47 1009.63 1009.58 1009.61 1009.87
1002.15 1001.65 1001.83 1001.93 1001.73 1001.64 1002.02 1002.45 1002.66 1002.76 1002.91 1003.00 1003.65 1003.88 1004.08 1004.54 1004.70 1005.12 1005.82 1006.66 1007.35 1007.91 1008.36 1009.11 1009.56 1009.56 1009.26 1009.67 1009.73 1009.62 1009.74 1010.12 1010.24 1010.30 1009.93 1009.97 1009.68 1009.68 1009.93 1010.24 1010.48 1010.59 1010.88
1002.71 1001.67 1001.80 1001.45 1000.85 1000.90 1001.38 1001.93 1002.17 1002.32 1002.31 1002.61 1002.90 1003.20 1003.48 1003.91 1004.32 1004.65 1005.36 1006.02 1006.62 1007.29 1007.77 1008.21 1008.24 1008.86 1009.04 1009.35 1009.60 1009.73 1009.60 1009.94 1010.45 1010.63 1010.63 1010.35 1010.32 1010.20 1010.57 1010.76 1010.98 1011.34 1011.62
1002.95 1001.51 1001.66 1000.40 1000.02 1000.26 1000.61 1001.24 1001.59 1001.79 1001.38 1001.64 1001.99 1002.23 1002.75 1003.62 1003.51 1003.79 1004.54 1005.17 1005.78 1006.15 1006.74 1007.22 1007.67 1008.04 1008.60 1009.10 1009.38 1009.84 1009.85 1010.12 1010.33 1010.86 1011.04 1010.92 1010.88 1010.82 1011.13 1011.44 1011.81 1012.10 1012.61
1003.14 1001.85 1001.16 1000.14 999.94 999.90 1000.03 1000.37 1000.25 1000.76 1000.49 1000.57 1001.00 1001.50 1002.03 1002.32 1002.31 1002.75 1003.51 1004.19 1004.57 1005.00 1005.68 1006.21 1006.93 1007.38 1007.96 1008.75 1008.91 1009.44 1009.67 1009.89 1010.26 1010.53 1011.21 1011.48 1011.30 1011.74 1011.91 1012.19 1012.65 1013.16 1013.66
1003.37 1002.42 1001.38 1000.32 999.62 999.30 999.30 999.77 999.25 998.97 999.63 999.43 999.91 1000.83 1001.13 1001.34 1001.44 1001.98 1002.56 1003.27 1003.46 1003.78 1004.52 1005.15 1005.90 1006.47 1006.98 1007.91 1008.23 1008.58 1009.13 1009.72 1010.17 1010.34 1011.06 1011.51 1011.73 1012.16 1012.61 1013.17 1013.61 1014.04 1014.56
1003.07 1001.93 1000.80 999.63 998.76 998.65 998.59 998.88 998.10 998.12 999.02 998.50 998.69 1000.26 1000.24 1000.30 1000.64 1000.99 1001.40 1001.95 1002.51 1003.09 1003.86 1004.46 1005.16 1006.00 1006.33 1006.99 1007.63 1007.66 1008.28 1008.95 1009.36 1009.75 1010.50 1011.42 1011.94 1012.35 1012.93 1013.59 1014.19 1014.86 1015.42
1002.67 1001.66 1000.79 999.80 998.52 997.93 997.99 997.44 997.13 997.31 997.94 997.47 998.22 998.87 999.19 999.55 999.57 1000.03 1000.59 1000.90 1001.63 1002.30 1002.99 1003.62 1004.35 1005.07 1005.82 1006.38 1007.23 1007.50 1007.67 1008.17 1008.93 1009.36 1009.94 1010.98 1011.94 1012.48 1012.94 1013.59 1014.25 1015.03 1015.71
1001.71 1001.30 1000.46 999.44 997.80 997.39 996.33 996.26 996.22 996.51 996.71 996.54 997.16 997.72 998.10 998.37 998.60 998.88 999.60 1000.11 1000.90 1001.67 1002.21 1002.93 1003.82 1004.45 1005.17 1005.65 1006.50 1007.23 1007.49 1007.82 1008.76 1009.24 1009.87 1010.76 1011.72 1012.57 1013.09 1013.74 1014.46 1015.25 1015.96
1001.35 1001.21 1000.50 999.42 998.52 996.30 995.73 995.92 995.27 995.71 995.60 995.86 996.39 996.67 996.99 997.12 997.46 998.06 998.83 999.53 1000.13 1000.85 1001.61 1002.45 1003.15 1003.77 1004.55 1005.29 1005.87 1006.76 1007.25 1007.66 1008.61 1009.13 1009.75 1010.59 1011.74 1012.70 1013.25 1013.96 1014.80 1015.51 1016.18
Wind_Speed
11 9 8 8 7 7 7 6 6 6 6 6 6 4 3 2 3 3 4 5 5 8 9 10 11 12 8 9 8 9 10 10 14 14 12 14 13 14 14 12 11 12 9
10 9 9 9 9 8 7 7 7 7 6 6 6 5 4 3 2 3 5 5 7 10 10 9 11 9 11 10 8 8 10 10 10 16 15 13 14 14 13 13 11 8 9
9 10 9 10 10 9 8 7 7 7 6 6 6 5 4 2 2 3 4 5 8 9 9 10 12 12 10 9 9 7 7 7 8 10 14 12 12 9 10 10 10 11 8
10 11 12 11 11 10 8 8 8 7 7 6 6 5 3 2 3 3 4 5 7 9 10 10 11 11 10 11 8 11 8 8 9 9 11 11 9 11 8 8 7 2 2
11 11 12 10 10 9 9 8 7 7 6 6 6 4 3 3 3 3 4 4 4 10 10 10 10 12 17 15 8 9 10 9 10 11 11 10 10 10 10 5 2 0 1
12 13 10 11 10 10 9 8 7 7 7 6 6 5 5 3 4 5 4 2 4 6 8 9 9 12 12 18 17 16 13 10 12 10 11 11 10 9 6 3 2 2 2
12 10 11 12 12 11 9 9 9 8 6 6 5 4 5 4 5 6 6 1 3 5 6 7 9 7 11 11 16 15 12 14 16 11 12 11 8 4 5 3 4 3 3
12 12 12 12 12 10 10 10 7 5 7 5 5 5 4 4 6 6 7 2 3 5 5 6 7 9 9 11 10 9 8 6 7 5 8 10 8 6 5 3 3 3 4
13 13 13 13 13 12 12 11 6 6 7 6 4 5 4 5 6 5 5 2 4 6 4 6 6 9 13 16 8 9 5 6 10 14 13 16 17 19 14 4 5 4 5
15 15 13 13 14 14 13 11 5 4 6 5 5 6 6 6 8 6 4 3 3 3 4 6 11 11 12 13 5 7 5 4 6 8 10 11 13 13 18 9 5 5 2
9 10 12 12 13 12 10 5 9 8 6 7 7 4 6 6 6 7 5 4 3 3 2 4 3 14 11 11 8 4 3 2 5 5 5 6 7 9 8 8 9 6 3
7 9 11 11 9 8 11 8 8 8 7 7 5 4 4 4 8 7 5 5 6 3 3 4 4 10 9 9 6 7 6 5 3 4 4 6 6 7 7 9 12 11 9
5 6 7 7 8 9 11 10 8 8 6 8 6 4 4 3 3 9 5 7 7 3 2 6 5 6 7 6 8 10 7 3 3 4 3 3 4 5 4 5 9 13 16
7 5 5 9 8 8 6 7 8 8 8 8 7 7 5 3 4 3 3 2 5 2 2 3 1 4 5 5 3 5 3 3 2 3 2 3 3 4 5 4 7 9 12
1 4 7 6 9 8 8 9 9 8 9 8 8 7 7 6 7 9 7 4 3 4 3 2 2 2 2 3 3 4 3 4 3 3 4 3 4 3 5 4 7 9 11
2 3 4 5 7 6 7 5 14 11 14 16 10 9 5 5 14 15 12 11 12 11 2 1 2 1 0 1 2 2 3 3 3 3 2 4 3 4 6 5 6 8 10
5 2 3 5 7 7 7 8 9 10 17 17 19 17 15 12 15 14 13 11 11 9 3 2 3 3 3 2 1 2 1 2 2 3 1 4 4 4 5 5 5 7 9
8 5 4 6 7 7 8 8 7 8 9 9 18 17 16 14 16 16 15 10 3 4 3 4 4 4 4 3 2 2 3 2 2 2 2 2 2 4 7 6 5 6 7
10 5 6 6 6 6 6 7 7 7 7 3 3 11 12 17 16 15 16 5 5 4 4 4 4 4 3 4 3 2 3 4 2 2 2 2 2 5 5 5 6 8 9
11 9 11 7 5 7 7 8 8 8 8 7 6 8 7 9 10 9 9 8 5 4 4 5 5 4 4 4 4 3 3 3 4 3 2 3 2 3 5 5 5 6 6
10 11 12 6 7 7 8 10 8 8 7 7 8 7 15 11 11 10 9 9 8 7 6 6 5 5 4 4 5 5 4 4 3 5 3 2 3 5 4 5 6 6 6
10 10 9 7 6 7 8 8 8 8 8 8 6 6 21 10 9 9 9 9 8 7 6 7 6 6 7 7 7 7 6 5 4 5 5 4 5 5 4 5 6 5 6
10 11 11 8 6 8 8 8 7 7 8 8 6 6 7 10 9 9 9 9 8 7 6 6 6 5 5 5 5 7 8 8 7 7 8 6 6 6 5 6 6 5 4
10 12 12 11 8 7 8 7 7 9 9 7 8 8 9 11 11 10 8 8 8 7 7 7 7 8 7 6 4 4 4 5 6 7 9 8 7 7 7 8 7 8 7
9 10 10 9 7 8 6 6 6 8 9 8 8 9 9 8 9 8 8 8 8 8 8 8 6 9 10 11 9 8 7 11 8 8 7 8 8 8 7 7 8 6 5
11 11 11 10 9 7 5 6 6 7 8 8 9 8 8 8 8 7 8 9 8 8 9 7 9 11 11 9 10 10 10 13 11 10 8 9 9 7 7 8 10 7 8
Wind_Direction
184 181 172 174 168 167 176 179 181 178 193 207 213 215 231 268 304 302 284 283 283 287 294 289 299 296 286 281 276 276 274 273 279 294 297 295 293 282 281 277 273 275 284
185 173 176 166 171 175 180 180 177 188 195 205 207 210 224 248 292 297 298 290 286 301 297 305 294 290 288 291 289 289 294 289 281 294 297 293 290 285 274 272 278 269 270
168 173 176 179 176 182 179 180 180 185 198 207 205 209 215 249 288 279 269 282 292 302 311 297 294 293 295 294 300 302 293 291 285 284 294 292 285 285 279 269 264 270 258
176 182 185 181 182 180 179 180 182 185 194 204 206 207 209 223 261 271 281 283 306 317 299 293 289 290 297 299 304 317 291 293 293 283 283 295 294 298 275 276 282 237 304
184 186 192 180 172 172 178 182 181 184 199 198 193 204 216 213 229 239 242 292 328 309 293 294 293 295 298 305 311 314 298 289 296 294 290 293 302 310 311 305 282 153 261
190 195 176 169 171 182 181 177 175 189 196 190 196 201 221 222 234 258 288 271 292 289 293 299 299 296 307 324 325 312 305 299 293 290 296 299 297 305 303 306 320 345 339
192 181 175 174 179 183 175 171 186 192 184 194 183 187 226 228 251 255 281 212 263 271 284 292 304 302 311 320 334 301 302 298 300 313 312 313 292 293 303 323 359 37 17
188 182 176 174 180 172 172 184 181 171 189 183 202 209 213 251 248 260 278 178 265 265 269 279 290 299 303 331 334 313 302 328 325 335 350 352 8 0 5 19 18 31 37
190 186 179 177 173 173 183 186 173 169 184 193 196 190 198 250 244 262 284 189 269 269 288 293 293 296 311 339 341 324 337 7 348 353 13 17 25 40 43 35 25 28 31
193 184 178 175 176 180 184 179 160 159 185 191 215 212 213 229 236 232 250 164 276 275 297 293 311 310 330 343 353 331 331 346 3 351 348 8 11 24 41 44 50 60 28
165 163 166 173 177 180 167 150 169 173 181 196 214 225 232 212 232 226 252 152 222 259 289 296 300 316 336 350 12 349 342 353 11 22 356 352 12 25 28 37 46 52 71
147 160 166 169 169 161 165 165 171 172 188 209 219 258 232 229 216 222 229 236 225 197 252 277 284 324 333 347 2 26 19 41 30 40 33 21 17 31 34 45 53 53 55
122 161 163 158 168 168 170 171 170 181 188 210 208 216 231 209 219 217 203 228 235 213 223 264 340 351 355 5 22 40 31 15 45 55 7 14 7 15 16 48 66 69 60
162 161 149 168 168 169 174 174 180 189 196 207 205 214 209 200 205 214 182 186 242 184 256 304 347 50 34 50 360 15 36 37 38 82 12 7 359 13 32 18 73 75 68
171 166 173 180 181 182 198 189 194 201 196 199 211 199 184 208 213 193 177 183 181 199 125 12 343 17 355 357 7 357 12 45 35 359 68 40 32 28 41 32 64 78 86
221 187 197 188 183 187 194 204 221 211 206 224 225 198 211 196 174 181 187 193 189 168 71 160 249 132 260 250 89 358 2 33 51 18 57 67 39 51 63 62 79 85 95
252 222 192 196 190 193 195 202 212 221 224 232 237 233 215 194 180 180 185 188 187 163 149 201 231 187 172 229 171 123 2 349 342 96 33 109 100 75 78 68 80 94 98
306 256 219 215 208 195 202 214 213 204 206 213 230 228 214 198 193 189 186 151 151 211 171 178 195 214 176 180 194 169 121 37 40 1 94 58 80 114 113 91 75 95 98
305 293 258 223 204 205 203 208 213 210 208 198 150 220 209 205 202 196 200 185 195 202 193 204 187 186 196 175 178 178 141 139 125 95 28 82 96 118 93 91 102 109 110
316 304 266 248 213 202 206 210 212 214 200 194 199 204 184 184 199 196 202 200 199 207 191 196 199 178 180 183 161 157 129 123 126 108 105 94 57 88 112 115 113 123 108
306 298 282 265 239 224 209 210 199 204 206 205 207 196 193 200 204 201 200 203 204 206 198 188 188 185 169 180 161 160 154 149 145 130 124 105 106 99 74 84 91 91 103
291 281 270 244 230 226 219 223 207 191 214 201 204 203 210 207 205 202 199 205 205 200 186 181 180 188 175 184 180 162 158 159 153 138 126 118 115 106 101 101 103 101 110
284 286 292 277 240 231 216 221 199 197 217 207 191 208 207 214 212 206 201 196 194 181 172 171 167 176 169 167 184 169 164 174 174 155 141 138 133 126 121 119 119 107 98
280 282 276 266 253 223 222 220 209 203 212 206 204 211 204 225 219 206 202 187 184 178 170 170 177 173 173 165 174 187 147 136 150 154 137 137 137 135 128 128 130 131 128
284 281 272 274 257 238 228 216 216 214 214 207 212 211 204 207 220 208 193 177 175 172 172 167 171 171 174 170 172 177 162 145 145 139 128 127 133 135 134 132 135 125 113
277 271 275 281 279 292 272 237 226 222 221 212 211 208 202 200 200 205 175 171 168 168 164 169 173 169 166 172 165 162 158 147 147 142 135 136 140 140 142 135 136 136 138